LIRALIRN

Guest
Details From LIRA - CIAMPINO
To LIRN - Naples Capodichino
Flight Number -
Tags generated
Created
Modified
Stats Distance 95 nm / 175 km
Max Altitude 7,500 ft / 2,286 m
Waypoints 3
Social Downloads 0
Likes 0
Share VATSIM

Download

Looking for another format? Having issues loading an existing format? Contact us
Advertisement - Login to hide

Notes

Basic altitude profile: - Ascent Rate: 1100ft/min - Ascent Speed: 100kts - Cruise Altitude: 3500ft - Cruise Speed: 140kts - Descent Rate: 1500ft/min - Descent Speed: 100kts Options: - Use NATs: yes - Use PACOTS: yes - Use low airways: yes - Use high airways: no

Route

LIRA LAT LIRN

ID Type Via Altitude Latitude Longitude Leg Dist Tot Dist Heading (true) Name
O LIRA APT - 0 ft / 0 m 41.79923˚ 12.59492˚ - 0 nm - CIAMPINO
LAT VOR - 7,500 ft / 2,286 m 41.54110˚ 12.91806˚ 21 nm 21 nm 137° / 137° LATINA VOR-DME
O LIRN APT - 0 ft / 0 m 40.88603˚ 14.29078˚ 73 nm 94 nm 122° / 123° Naples Capodichino

Altitude Profile

Advertisement - Login to hide

LIRA

Details ICAO LIRA (CIA)
Name CIAMPINO
Region Italy
Timezone Europe/Rome (UTC+2.0)
Stats Elevation 427 ft / 130 m (AMSL)
Location 41.799228° 12.594917°
Runways 1
Magnetic Variation 3.034° E

METAR

LIRA 230850Z 02003KT 290V080 CAVOK 19/09 Q1022

Decode

TAF

TAF LIRA 230500Z 2306/2406 VRB04KT CAVOK BECMG 2309/2311 23010KT BECMG 2316/2318 VRB05KT

Decode

Departure Runways

ID Width Length Bearing (true) Bearing (mag) Surface Threshold Offset Overrun Length
15 154 ft / 47 m 7,246 ft / 2,209 m 152.79° 149.76° Asphalt 0 ft / 0 m 0 ft / 0 m
33 154 ft / 47 m 7,246 ft / 2,209 m 332.80° 329.77° Asphalt 0 ft / 0 m 0 ft / 0 m

LIRN

Details ICAO LIRN (NAP)
Name Naples Capodichino
Region Italy
Timezone Europe/Rome (UTC+2.0)
Stats Elevation 294 ft / 90 m (AMSL)
Location 40.886032° 14.290783°
Runways 1
Magnetic Variation 3.284° E

METAR

LIRN 230850Z VRB02KT 9999 FEW035 22/12 Q1023 NOSIG

Decode

TAF

TAF LIRN 230500Z 2306/2406 VRB05KT CAVOK BECMG 2309/2311 20010KT BECMG 2316/2318 VRB05KT

Decode

Destination Runways

ID Width Length Bearing (true) Bearing (mag) Surface Threshold Offset Overrun Length
06 148 ft / 45 m 8,612 ft / 2,625 m 58.03° 54.75° Asphalt 1,309 ft / 399 m 0 ft / 0 m
24 148 ft / 45 m 8,612 ft / 2,625 m 238.05° 234.77° Asphalt 624 ft / 190 m 0 ft / 0 m

Approach Navaids

Runway Type Ident Frequency Range Bearing (true) Bearing (mag) Slope Elevation
06 Localiser NPC 110.15 MHz 18 nm / 33 km 52.74° 49.45° - 294 ft / 90 m (AMSL)
06 Glidescope NPC 110.15 MHz 10 nm / 19 km 58.04° 54.75° 3.50° 294 ft / 90 m (AMSL)
06 DME NPC 110.15 MHz 25 nm / 46 km - - - 294 ft / 90 m (AMSL)
24 Localiser INPL 109.50 MHz 18 nm / 33 km 238.03° 234.74° - 288 ft / 88 m (AMSL)
24 Glidescope INPL 109.50 MHz 10 nm / 19 km 238.04° 234.75° 3.33° 250 ft / 76 m (AMSL)
24 DME INPL 109.50 MHz 25 nm / 46 km - - - 250 ft / 76 m (AMSL)

Popular Alternatives